| time (UTC) | temp F | wind direction | speed MPH | gust MPH | rain 1hr in | rain 24hr in | rain mn in | humidity % | barometer mb |
| 20260903130817 | 73 | 73 | 136.0 | 137.0 | 0.00 | 0.00 | 0.00 | 86 | 1014.7 |
| 20260903130326 | 73 | 71 | 136.0 | 137.0 | 0.00 | 0.00 | 0.00 | 86 | 1014.8 |
| 20260903125828 | 73 | 76 | 136.0 | 137.0 | 0.00 | 0.00 | 0.00 | 86 | 1014.9 |
| 20260903125327 | 72 | 72 | 136.0 | 137.0 | 0.00 | 0.00 | 0.00 | 86 | 1015.0 |
| 20260903124837 | 72 | 71 | 136.0 | 137.0 | 0.00 | 0.00 | 0.00 | 86 | 1014.9 |
| 20260903124319 | 72 | 74 | 136.0 | 137.0 | 0.00 | 0.00 | 0.00 | 86 | 1015.0 |
| 20260903123820 | 72 | 78 | 136.0 | 137.0 | 0.00 | 0.00 | 0.00 | 86 | 1014.9 |
| 20260903123329 | 72 | 71 | 136.0 | 137.0 | 0.00 | 0.00 | 0.00 | 86 | 1014.9 |
| 20260903122829 | 72 | 80 | 137.0 | 137.0 | 0.00 | 0.00 | 0.00 | 86 | 1015.0 |
| 20260903122336 | 72 | 79 | 137.0 | 137.0 | 0.00 | 0.00 | 0.00 | 85 | 1015.0 |
| 20260903121818 | 72 | 79 | 137.0 | 137.0 | 0.00 | 0.00 | 0.00 | 85 | 1015.0 |
| 20260903121321 | 72 | 75 | 136.0 | 137.0 | 0.00 | 0.00 | 0.00 | 85 | 1015.0 |
| 20260903120829 | 72 | 74 | 136.0 | 137.0 | 0.00 | 0.00 | 0.00 | 86 | 1015.2 |
| 20260903120311 | 72 | 72 | 136.0 | 137.0 | 0.00 | 0.00 | 0.00 | 86 | 1015.3 |
| 20260903115812 | 72 | 73 | 136.0 | 137.0 | 0.00 | 0.00 | 0.00 | 86 | 1015.3 |
| 20260903115314 | 72 | 73 | 91.0 | 137.0 | 0.00 | 0.00 | 0.00 | 86 | 1015.3 |
| 20260903114823 | 72 | 78 | 2.0 | 5.0 | 0.00 | 0.00 | 0.00 | 86 | 1015.3 |
| 20260903114326 | 72 | 73 | 2.0 | 137.0 | 0.00 | 0.00 | 0.00 | 86 | 1015.3 |
| 20260903113835 | 72 | 72 | 2.0 | 137.0 | 0.00 | 0.00 | 0.00 | 86 | 1015.3 |
| 20260903113336 | 72 | 77 | 137.0 | 138.0 | 0.00 | 0.00 | 0.00 | 85 | 1015.2 |
| 20260903112817 | 72 | 78 | 137.0 | 137.0 | 0.00 | 0.00 | 0.00 | 85 | 1015.0 |
| 20260903112327 | 72 | 75 | 136.0 | 137.0 | 0.00 | 0.00 | 0.00 | 86 | 1015.1 |
| 20260903111827 | 72 | 74 | 137.0 | 137.0 | 0.00 | 0.00 | 0.00 | 86 | 1015.0 |
| 20260903111336 | 72 | 71 | 136.0 | 137.0 | 0.00 | 0.00 | 0.00 | 85 | 1015.1 |
| 20260903110838 | 72 | 76 | 137.0 | 137.0 | 0.00 | 0.00 | 0.00 | 85 | 1014.9 |
| 20260903110318 | 72 | 76 | 137.0 | 137.0 | 0.00 | 0.00 | 0.00 | 86 | 1014.8 |
| 20260903105847 | 72 | 77 | 137.0 | 137.0 | 0.00 | 0.00 | 0.00 | 86 | 1014.8 |
| 20260903105328 | 72 | 75 | 136.0 | 137.0 | 0.00 | 0.00 | 0.00 | 86 | 1014.8 |
| 20260903104836 | 72 | 75 | 137.0 | 137.0 | 0.00 | 0.00 | 0.00 | 86 | 1014.7 |
| 20260903104319 | 72 | 76 | 137.0 | 137.0 | 0.00 | 0.00 | 0.00 | 86 | 1014.9 |
| 20260903103821 | 72 | 78 | 137.0 | 137.0 | 0.00 | 0.00 | 0.00 | 86 | 1014.9 |
| 20260903103330 | 72 | 77 | 137.0 | 137.0 | 0.00 | 0.00 | 0.00 | 86 | 1014.9 |
| 20260903102831 | 72 | 76 | 137.0 | 137.0 | 0.00 | 0.00 | 0.00 | 86 | 1015.0 |
| 20260903102400 | 72 | 79 | 137.0 | 137.0 | 0.00 | 0.00 | 0.00 | 86 | 1015.0 |
| 20260903101820 | 72 | 79 | 137.0 | 137.0 | 0.00 | 0.00 | 0.00 | 86 | 1014.8 |
| 20260903101323 | 72 | 78 | 137.0 | 137.0 | 0.00 | 0.00 | 0.00 | 86 | 1014.8 |
| 20260903100831 | 72 | 78 | 137.0 | 137.0 | 0.00 | 0.00 | 0.00 | 86 | 1014.8 |
| 20260903100313 | 72 | 80 | 137.0 | 137.0 | 0.00 | 0.00 | 0.00 | 86 | 1014.8 |
| 20260903095815 | 72 | 76 | 137.0 | 137.0 | 0.00 | 0.00 | 0.00 | 86 | 1014.8 |
| 20260903095317 | 72 | 75 | 137.0 | 137.0 | 0.00 | 0.00 | 0.00 | 86 | 1014.9 |
| 20260903094826 | 72 | 76 | 137.0 | 137.0 | 0.00 | 0.00 | 0.00 | 86 | 1014.9 |
| 20260903094328 | 72 | 76 | 137.0 | 137.0 | 0.00 | 0.00 | 0.00 | 86 | 1014.9 |
| 20260903093836 | 72 | 76 | 136.0 | 137.0 | 0.00 | 0.00 | 0.00 | 86 | 1015.0 |
| 20260903093315 | 72 | 73 | 136.0 | 136.0 | 0.00 | 0.00 | 0.00 | 86 | 1014.9 |
| 20260903092837 | 72 | 69 | 136.0 | 137.0 | 0.00 | 0.00 | 0.00 | 86 | 1015.0 |
| 20260903092324 | 72 | 71 | 136.0 | 137.0 | 0.00 | 0.00 | 0.00 | 86 | 1014.8 |
| 20260903091827 | 72 | 69 | 136.0 | 137.0 | 0.00 | 0.00 | 0.00 | 86 | 1014.8 |
| 20260903091336 | 72 | 71 | 136.0 | 137.0 | 0.00 | 0.00 | 0.00 | 86 | 1014.8 |
| 20260903090815 | 72 | 70 | 136.0 | 137.0 | 0.00 | 0.00 | 0.00 | 86 | 1014.9 |
| 20260903090316 | 71 | 67 | 136.0 | 137.0 | 0.00 | 0.00 | 0.00 | 86 | 1014.9 |
| 20260903085818 | 71 | 67 | 136.0 | 137.0 | 0.00 | 0.00 | 0.00 | 86 | 1015.0 |
| 20260903085327 | 71 | 67 | 136.0 | 137.0 | 0.00 | 0.00 | 0.00 | 86 | 1015.0 |
| 20260903084850 | 71 | 63 | 136.0 | 137.0 | 0.00 | 0.00 | 0.00 | 86 | 1015.0 |
| 20260903084318 | 71 | 63 | 136.0 | 137.0 | 0.00 | 0.00 | 0.00 | 85 | 1014.9 |
| 20260903083819 | 71 | 65 | 136.0 | 136.0 | 0.00 | 0.00 | 0.00 | 86 | 1015.0 |
| 20260903083321 | 72 | 65 | 136.0 | 136.0 | 0.00 | 0.00 | 0.00 | 86 | 1014.9 |
| 20260903082830 | 72 | 63 | 135.0 | 137.0 | 0.00 | 0.00 | 0.00 | 86 | 1015.0 |
| 20260903082351 | 71 | 63 | 135.0 | 137.0 | 0.00 | 0.00 | 0.00 | 86 | 1014.9 |
| 20260903081818 | 71 | 62 | 135.0 | 137.0 | 0.00 | 0.00 | 0.00 | 86 | 1014.9 |
| 20260903081321 | 71 | 63 | 135.0 | 137.0 | 0.00 | 0.00 | 0.00 | 85 | 1014.9 |
| 20260903080829 | 71 | 49 | 135.0 | 136.0 | 0.00 | 0.00 | 0.00 | 85 | 1015.0 |
| 20260903080331 | 72 | 50 | 135.0 | 136.0 | 0.00 | 0.00 | 0.00 | 85 | 1015.0 |
| 20260903075814 | 72 | 48 | 135.0 | 136.0 | 0.00 | 0.00 | 0.00 | 85 | 1015.0 |
| 20260903075315 | 72 | 49 | 135.0 | 136.0 | 0.00 | 0.00 | 0.00 | 85 | 1015.0 |
| 20260903074824 | 72 | 50 | 135.0 | 136.0 | 0.00 | 0.00 | 0.00 | 85 | 1015.0 |
| 20260903074354 | 72 | 49 | 135.0 | 136.0 | 0.00 | 0.00 | 0.00 | 85 | 1015.1 |
| 20260903073813 | 72 | 49 | 135.0 | 136.0 | 0.00 | 0.00 | 0.00 | 85 | 1015.0 |
| 20260903073314 | 72 | 48 | 135.0 | 136.0 | 0.00 | 0.00 | 0.00 | 85 | 1015.0 |
| 20260903072816 | 72 | 48 | 135.0 | 136.0 | 0.00 | 0.00 | 0.00 | 85 | 1015.0 |
| 20260903072325 | 72 | 49 | 135.0 | 136.0 | 0.00 | 0.00 | 0.00 | 85 | 1015.0 |
| 20260903071827 | 72 | 50 | 135.0 | 136.0 | 0.00 | 0.00 | 0.00 | 85 | 1015.0 |
| 20260903071337 | 72 | 50 | 135.0 | 136.0 | 0.00 | 0.00 | 0.00 | 85 | 1015.1 |
| 20260903070816 | 72 | 50 | 135.0 | 136.0 | 0.00 | 0.00 | 0.00 | 85 | 1015.1 |
| 20260903070342 | 72 | 50 | 135.0 | 136.0 | 0.00 | 0.00 | 0.00 | 85 | 1015.1 |
| 20260903065844 | 72 | 50 | 135.0 | 136.0 | 0.00 | 0.00 | 0.00 | 85 | 1015.1 |
| 20260903065331 | 72 | 50 | 135.0 | 136.0 | 0.00 | 0.00 | 0.00 | 85 | 1015.1 |
| 20260903064813 | 72 | 48 | 135.0 | 136.0 | 0.00 | 0.00 | 0.00 | 85 | 1015.1 |
| 20260903064316 | 72 | 50 | 135.0 | 136.0 | 0.00 | 0.00 | 0.00 | 85 | 1015.1 |
| 20260903063824 | 72 | 49 | 135.0 | 136.0 | 0.00 | 0.00 | 0.00 | 85 | 1015.0 |
| 20260903063326 | 72 | 48 | 135.0 | 136.0 | 0.00 | 0.00 | 0.00 | 85 | 1015.0 |
| 20260903062828 | 72 | 48 | 135.0 | 136.0 | 0.00 | 0.00 | 0.00 | 85 | 1015.1 |
| 20260903062336 | 72 | 48 | 135.0 | 136.0 | 0.00 | 0.00 | 0.00 | 85 | 1014.9 |
| 20260903061818 | 72 | 49 | 135.0 | 136.0 | 0.00 | 0.00 | 0.00 | 85 | 1015.0 |
| 20260903061320 | 72 | 50 | 135.0 | 136.0 | 0.00 | 0.00 | 0.00 | 85 | 1015.0 |
| 20260903060829 | 72 | 48 | 135.0 | 136.0 | 0.00 | 0.00 | 0.00 | 85 | 1014.9 |
| 20260903060315 | 72 | 50 | 135.0 | 136.0 | 0.00 | 0.00 | 0.00 | 85 | 1014.9 |
| 20260903055816 | 72 | 50 | 135.0 | 136.0 | 0.00 | 0.00 | 0.00 | 85 | 1014.9 |
| 20260903055325 | 72 | 50 | 135.0 | 136.0 | 0.00 | 0.00 | 0.00 | 85 | 1014.9 |
| 20260903054827 | 72 | 50 | 135.0 | 136.0 | 0.00 | 0.00 | 0.00 | 85 | 1014.8 |
| 20260903054353 | 73 | 49 | 135.0 | 136.0 | 0.00 | 0.00 | 0.00 | 85 | 1014.8 |
| 20260903053817 | 73 | 49 | 135.0 | 136.0 | 0.00 | 0.00 | 0.00 | 85 | 1014.7 |
| 20260903053318 | 73 | 50 | 104.0 | 136.0 | 0.00 | 0.00 | 0.00 | 85 | 1014.7 |
| 20260903052820 | 73 | 48 | 0.0 | 2.0 | 0.00 | 0.00 | 0.00 | 85 | 1014.8 |
| 20260903052329 | 73 | 50 | 0.0 | 2.0 | 0.00 | 0.00 | 0.00 | 84 | 1014.8 |
| 20260903051831 | 73 | 49 | 0.0 | 1.0 | 0.00 | 0.00 | 0.00 | 85 | 1014.8 |
| 20260903051314 | 73 | 49 | 0.0 | 0.0 | 0.00 | 0.00 | 0.00 | 85 | 1014.8 |
| 20260903050822 | 73 | 48 | 0.0 | 0.0 | 0.00 | 0.00 | 0.00 | 85 | 1014.7 |
| 20260903050323 | 73 | 49 | 0.0 | 0.0 | 0.00 | 0.00 | 0.00 | 85 | 1014.7 |
| 20260903045832 | 73 | 49 | 0.0 | 0.0 | 0.00 | 0.00 | 0.00 | 85 | 1014.8 |
| 20260903045334 | 73 | 49 | 0.0 | 0.0 | 0.00 | 0.00 | 0.00 | 85 | 1014.7 |
| 20260903044838 | 73 | 50 | 0.0 | 2.0 | 0.00 | 0.00 | 0.00 | 85 | 1014.7 |
| 20260903044320 | 73 | 49 | 0.0 | 2.0 | 0.00 | 0.00 | 0.00 | 85 | 1014.6 |
| 20260903043828 | 73 | 48 | 1.0 | 2.0 | 0.00 | 0.00 | 0.00 | 85 | 1014.6 |
| 20260903043313 | 73 | 50 | 0.0 | 1.0 | 0.00 | 0.00 | 0.00 | 85 | 1014.6 |
| 20260903042815 | 73 | 49 | 0.0 | 1.0 | 0.00 | 0.00 | 0.00 | 85 | 1014.7 |
| 20260903042341 | 73 | 49 | 0.0 | 1.0 | 0.00 | 0.00 | 0.00 | 84 | 1014.7 |
| 20260903041823 | 73 | 49 | 0.0 | 0.0 | 0.00 | 0.00 | 0.00 | 85 | 1014.6 |
| 20260903041352 | 73 | 49 | 0.0 | 0.0 | 0.00 | 0.00 | 0.00 | 85 | 1014.7 |
| 20260903040839 | 73 | 48 | 0.0 | 0.0 | 0.00 | 0.00 | 0.00 | 85 | 1014.7 |
| 20260903040317 | 73 | 48 | 0.0 | 1.0 | 0.00 | 0.00 | 0.00 | 85 | 1014.6 |
| 20260903035847 | 73 | 49 | 0.0 | 1.0 | 0.00 | 0.00 | 0.00 | 85 | 1014.6 |
| 20260903035328 | 73 | 49 | 0.0 | 1.0 | 0.00 | 0.00 | 0.00 | 85 | 1014.5 |
| 20260903034830 | 73 | 48 | 0.0 | 1.0 | 0.00 | 0.00 | 0.00 | 85 | 1014.6 |
| 20260903034339 | 73 | 49 | 0.0 | 2.0 | 0.00 | 0.00 | 0.00 | 85 | 1014.4 |
| 20260903033820 | 73 | 49 | 1.0 | 2.0 | 0.00 | 0.00 | 0.00 | 85 | 1014.4 |
| 20260903033322 | 73 | 48 | 1.0 | 2.0 | 0.00 | 0.00 | 0.00 | 85 | 1014.3 |
| 20260903032830 | 73 | 48 | 1.0 | 2.0 | 0.00 | 0.00 | 0.00 | 85 | 1014.4 |
| 20260903032312 | 73 | 49 | 1.0 | 1.0 | 0.00 | 0.00 | 0.00 | 85 | 1014.4 |
| 20260903031813 | 73 | 50 | 0.0 | 2.0 | 0.00 | 0.00 | 0.00 | 85 | 1014.4 |
| 20260903031316 | 73 | 48 | 1.0 | 2.0 | 0.00 | 0.00 | 0.00 | 85 | 1014.3 |
| 20260903030822 | 73 | 48 | 1.0 | 2.0 | 0.00 | 0.00 | 0.00 | 85 | 1014.3 |
| 20260903030324 | 73 | 49 | 1.0 | 2.0 | 0.00 | 0.00 | 0.00 | 85 | 1014.4 |
| 20260903025833 | 73 | 49 | 1.0 | 2.0 | 0.00 | 0.00 | 0.00 | 85 | 1014.4 |
| 20260903025318 | 74 | 49 | 1.0 | 2.0 | 0.00 | 0.00 | 0.00 | 85 | 1014.6 |
| 20260903024820 | 74 | 49 | 1.0 | 2.0 | 0.00 | 0.00 | 0.00 | 85 | 1014.6 |
| 20260903024329 | 73 | 49 | 1.0 | 2.0 | 0.00 | 0.00 | 0.00 | 85 | 1014.6 |
| 20260903023827 | 74 | 49 | 1.0 | 2.0 | 0.00 | 0.00 | 0.00 | 85 | 1014.6 |
| 20260903023328 | 74 | 50 | 1.0 | 2.0 | 0.00 | 0.00 | 0.00 | 85 | 1014.7 |
| 20260903022836 | 74 | 50 | 1.0 | 2.0 | 0.00 | 0.00 | 0.00 | 84 | 1014.6 |
| 20260903022317 | 74 | 49 | 1.0 | 2.0 | 0.00 | 0.00 | 0.00 | 84 | 1014.7 |
| 20260903021818 | 74 | 49 | 1.0 | 2.0 | 0.00 | 0.00 | 0.00 | 84 | 1014.7 |
| 20260903021320 | 74 | 49 | 1.0 | 2.0 | 0.00 | 0.00 | 0.00 | 84 | 1014.7 |
| 20260903020826 | 74 | 49 | 1.0 | 2.0 | 0.00 | 0.00 | 0.00 | 84 | 1014.6 |
| 20260903020327 | 74 | 49 | 1.0 | 2.0 | 0.00 | 0.00 | 0.00 | 84 | 1014.6 |
| 20260903015836 | 74 | 49 | 1.0 | 2.0 | 0.00 | 0.00 | 0.00 | 84 | 1014.4 |
| 20260903015317 | 74 | 49 | 1.0 | 2.0 | 0.00 | 0.00 | 0.00 | 84 | 1014.4 |
| 20260903014818 | 74 | 49 | 1.0 | 2.0 | 0.00 | 0.00 | 0.00 | 83 | 1014.4 |
| 20260903014320 | 74 | 48 | 1.0 | 1.0 | 0.00 | 0.00 | 0.00 | 84 | 1014.3 |
| 20260903013827 | 74 | 49 | 1.0 | 2.0 | 0.00 | 0.00 | 0.00 | 83 | 1014.4 |
| 20260903013329 | 74 | 49 | 1.0 | 2.0 | 0.00 | 0.00 | 0.00 | 83 | 1014.4 |
| 20260903012837 | 74 | 48 | 1.0 | 2.0 | 0.00 | 0.00 | 0.00 | 83 | 1014.3 |
| 20260903012318 | 75 | 49 | 1.0 | 2.0 | 0.00 | 0.00 | 0.00 | 83 | 1014.3 |
| 20260903011821 | 75 | 49 | 1.0 | 2.0 | 0.00 | 0.00 | 0.00 | 82 | 1014.2 |
| 20260903011323 | 75 | 49 | 1.0 | 2.0 | 0.00 | 0.00 | 0.00 | 82 | 1014.2 |
| 20260903010812 | 75 | 49 | 1.0 | 2.0 | 0.00 | 0.00 | 0.00 | 82 | 1014.1 |
| 20260903010331 | 75 | 49 | 1.0 | 2.0 | 0.00 | 0.00 | 0.00 | 82 | 1014.1 |
| 20260903005841 | 76 | 49 | 1.0 | 2.0 | 0.00 | 0.00 | 0.00 | 82 | 1014.0 |
| 20260903005322 | 76 | 49 | 0.0 | 2.0 | 0.00 | 0.00 | 0.00 | 81 | 1014.0 |
| 20260903004823 | 76 | 49 | 1.0 | 2.0 | 0.00 | 0.00 | 0.00 | 81 | 1014.0 |
| 20260903004331 | 76 | 5 | 0.0 | 1.0 | 0.00 | 0.00 | 0.00 | 81 | 1013.9 |
| 20260903003837 | 76 | 5 | 0.0 | 1.0 | 0.00 | 0.00 | 0.00 | 81 | 1013.9 |
| 20260903003318 | 77 | 5 | 0.0 | 0.0 | 0.00 | 0.00 | 0.00 | 80 | 1014.0 |
| 20260903002819 | 77 | 5 | 0.0 | 0.0 | 0.00 | 0.00 | 0.00 | 80 | 1013.9 |
| 20260903002328 | 77 | 5 | 0.0 | 0.0 | 0.00 | 0.00 | 0.00 | 80 | 1014.0 |
| 20260903001831 | 77 | 5 | 0.0 | 0.0 | 0.00 | 0.00 | 0.00 | 80 | 1014.0 |
| 20260903001340 | 77 | 5 | 0.0 | 0.0 | 0.00 | 0.00 | 0.00 | 79 | 1013.9 |
| 20260903000842 | 78 | 5 | 0.0 | 0.0 | 0.00 | 0.00 | 0.00 | 80 | 1014.0 |
| 20260903000322 | 78 | 5 | 0.0 | 0.0 | 0.00 | 0.00 | 0.00 | 80 | 1014.0 |
| 20260902235831 | 78 | 5 | 0.0 | 0.0 | 0.00 | 0.00 | 0.00 | 80 | 1014.1 |
| 20260902235313 | 78 | 5 | 0.0 | 0.0 | 0.00 | 0.00 | 0.00 | 80 | 1014.0 |
| 20260902234815 | 77 | 5 | 0.0 | 1.0 | 0.00 | 0.00 | 0.00 | 80 | 1014.0 |
| 20260902234323 | 77 | 5 | 0.0 | 1.0 | 0.00 | 0.00 | 0.00 | 81 | 1014.1 |
| 20260902233824 | 77 | 5 | 0.0 | 1.0 | 0.00 | 0.00 | 0.00 | 80 | 1014.2 |
| 20260902233353 | 77 | 5 | 0.0 | 1.0 | 0.00 | 0.00 | 0.00 | 80 | 1014.1 |
| 20260902232813 | 77 | 5 | 0.0 | 1.0 | 0.00 | 0.00 | 0.00 | 80 | 1014.0 |
| 20260902232321 | 77 | 5 | 0.0 | 0.0 | 0.00 | 0.00 | 0.00 | 80 | 1014.1 |
| 20260902231824 | 77 | 5 | 0.0 | 1.0 | 0.00 | 0.00 | 0.00 | 80 | 1014.0 |
| 20260902231326 | 77 | 5 | 0.0 | 1.0 | 0.00 | 0.00 | 0.00 | 80 | 1014.0 |
| 20260902230834 | 77 | 5 | 0.0 | 1.0 | 0.00 | 0.00 | 0.00 | 79 | 1014.1 |
| 20260902230314 | 77 | 5 | 0.0 | 1.0 | 0.00 | 0.00 | 0.00 | 79 | 1014.1 |
| 20260902225844 | 77 | 5 | 0.0 | 1.0 | 0.00 | 0.00 | 0.00 | 79 | 1014.2 |
| 20260902225325 | 77 | 5 | 0.0 | 1.0 | 0.00 | 0.00 | 0.00 | 79 | 1014.1 |
| 20260902224856 | 77 | 360 | 0.0 | 3.0 | 0.00 | 0.00 | 0.00 | 79 | 1014.3 |
| 20260902224317 | 77 | 57 | 0.0 | 3.0 | 0.00 | 0.00 | 0.00 | 79 | 1014.3 |
| 20260902223818 | 77 | 355 | 0.0 | 1.0 | 0.00 | 0.00 | 0.00 | 79 | 1014.2 |
| 20260902223325 | 77 | 245 | 0.0 | 1.0 | 0.00 | 0.00 | 0.00 | 79 | 1014.3 |
| 20260902222826 | 77 | 244 | 0.0 | 1.0 | 0.00 | 0.00 | 0.00 | 80 | 1014.3 |
| 20260902222328 | 77 | 242 | 0.0 | 1.0 | 0.00 | 0.00 | 0.00 | 80 | 1014.3 |
| 20260902221837 | 77 | 236 | 0.0 | 1.0 | 0.00 | 0.00 | 0.00 | 80 | 1014.4 |
| 20260902221319 | 77 | 237 | 1.0 | 2.0 | 0.00 | 0.00 | 0.00 | 80 | 1014.4 |
| 20260902220819 | 77 | 218 | 1.0 | 2.0 | 0.00 | 0.00 | 0.00 | 80 | 1014.4 |
| 20260902220328 | 77 | 226 | 1.0 | 2.0 | 0.00 | 0.00 | 0.00 | 80 | 1014.4 |
| 20260902215830 | 76 | 239 | 0.0 | 3.0 | 0.00 | 0.00 | 0.00 | 80 | 1014.4 |
| 20260902215312 | 76 | 243 | 1.0 | 4.0 | 0.00 | 0.00 | 0.00 | 80 | 1014.6 |
| 20260902214812 | 76 | 230 | 2.0 | 4.0 | 0.00 | 0.00 | 0.00 | 80 | 1014.6 |
| 20260902214321 | 76 | 216 | 2.0 | 4.0 | 0.00 | 0.00 | 0.00 | 80 | 1014.5 |
| 20260902213820 | 76 | 242 | 1.0 | 4.0 | 0.00 | 0.00 | 0.00 | 80 | 1014.4 |
| 20260902213329 | 77 | 208 | 1.0 | 4.0 | 0.00 | 0.00 | 0.00 | 80 | 1014.6 |
| 20260902212830 | 77 | 253 | 1.0 | 5.0 | 0.00 | 0.00 | 0.00 | 79 | 1014.6 |
| 20260902212313 | 77 | 229 | 0.0 | 5.0 | 0.00 | 0.00 | 0.00 | 80 | 1014.6 |
| 20260902211814 | 77 | 207 | 2.0 | 4.0 | 0.00 | 0.00 | 0.00 | 80 | 1014.6 |
| 20260902211324 | 77 | 209 | 1.0 | 3.0 | 0.00 | 0.00 | 0.00 | 80 | 1014.6 |
| 20260902210825 | 77 | 217 | 1.0 | 4.0 | 0.00 | 0.00 | 0.00 | 80 | 1014.5 |
| 20260902210333 | 77 | 213 | 2.0 | 4.0 | 0.00 | 0.00 | 0.00 | 80 | 1014.5 |
| 20260902205814 | 77 | 228 | 1.0 | 5.0 | 0.00 | 0.00 | 0.00 | 80 | 1014.6 |
| 20260902205337 | 77 | 232 | 2.0 | 5.0 | 0.00 | 0.00 | 0.00 | 80 | 1014.7 |
| 20260902204823 | 77 | 245 | 2.0 | 5.0 | 0.00 | 0.00 | 0.00 | 80 | 1014.6 |
| 20260902204326 | 77 | 202 | 2.0 | 5.0 | 0.00 | 0.00 | 0.00 | 80 | 1014.5 |
| 20260902203854 | 77 | 220 | 2.0 | 5.0 | 0.00 | 0.00 | 0.00 | 81 | 1014.6 |
| 20260902203316 | 77 | 211 | 3.0 | 5.0 | 0.00 | 0.00 | 0.00 | 81 | 1014.3 |
| 20260902202842 | 76 | 226 | 2.0 | 4.0 | 0.00 | 0.00 | 0.00 | 82 | 1014.3 |
| 20260902202322 | 76 | 205 | 0.0 | 3.0 | 0.00 | 0.00 | 0.00 | 82 | 1014.1 |
| 20260902201825 | 76 | 293 | 1.0 | 3.0 | 0.00 | 0.00 | 0.00 | 82 | 1014.0 |
| 20260902201334 | 76 | 80 | 1.0 | 4.0 | 0.00 | 0.00 | 0.00 | 81 | 1014.2 |
| 20260902200815 | 76 | 190 | 1.0 | 4.0 | 0.00 | 0.00 | 0.00 | 81 | 1014.9 |
| 20260902200314 | 76 | 225 | 1.0 | 4.0 | 0.00 | 0.00 | 0.00 | 81 | 1014.5 |
| 20260902195822 | 76 | 213 | 1.0 | 6.0 | 0.00 | 0.00 | 0.00 | 80 | 1015.0 |
| 20260902195323 | 76 | 211 | 2.0 | 6.0 | 0.00 | 0.00 | 0.00 | 80 | 1015.1 |
| 20260902194825 | 77 | 208 | 2.0 | 5.0 | 0.00 | 0.00 | 0.00 | 80 | 1014.9 |
| 20260902194335 | 77 | 230 | 2.0 | 7.0 | 0.00 | 0.00 | 0.00 | 80 | 1014.8 |
| 20260902193837 | 77 | 211 | 2.0 | 7.0 | 0.00 | 0.00 | 0.00 | 80 | 1014.8 |
| 20260902193324 | 77 | 185 | 2.0 | 4.0 | 0.00 | 0.00 | 0.00 | 79 | 1014.9 |
| 20260902192846 | 77 | 217 | 2.0 | 5.0 | 0.00 | 0.00 | 0.00 | 79 | 1014.9 |
| 20260902192352 | 77 | 217 | 2.0 | 5.0 | 0.00 | 0.00 | 0.00 | 79 | 1014.9 |
| 20260902191813 | 77 | 218 | 1.0 | 4.0 | 0.00 | 0.00 | 0.00 | 80 | 1014.9 |
| 20260902191321 | 77 | 210 | 1.0 | 5.0 | 0.00 | 0.00 | 0.00 | 80 | 1015.0 |
| 20260902190822 | 77 | 283 | 2.0 | 5.0 | 0.00 | 0.00 | 0.00 | 80 | 1015.1 |
| 20260902190324 | 77 | 326 | 1.0 | 4.0 | 0.00 | 0.00 | 0.00 | 79 | 1015.1 |
| 20260902185833 | 77 | 232 | 2.0 | 4.0 | 0.00 | 0.00 | 0.00 | 79 | 1015.2 |
| 20260902185316 | 78 | 217 | 2.0 | 4.0 | 0.00 | 0.00 | 0.00 | 79 | 1015.1 |
| 20260902184817 | 78 | 234 | 1.0 | 4.0 | 0.00 | 0.00 | 0.00 | 79 | 1015.0 |
| 20260902184325 | 78 | 219 | 1.0 | 5.0 | 0.00 | 0.00 | 0.00 | 78 | 1015.0 |
| 20260902183826 | 78 | 209 | 2.0 | 5.0 | 0.00 | 0.00 | 0.00 | 78 | 1015.0 |
| 20260902183356 | 78 | 240 | 2.0 | 5.0 | 0.00 | 0.00 | 0.00 | 78 | 1014.9 |
| 20260902182816 | 78 | 207 | 2.0 | 3.0 | 0.00 | 0.00 | 0.00 | 78 | 1014.9 |
| 20260902182317 | 78 | 267 | 2.0 | 4.0 | 0.00 | 0.00 | 0.00 | 78 | 1015.3 |
| 20260902181827 | 78 | 194 | 2.0 | 7.0 | 0.00 | 0.00 | 0.00 | 78 | 1015.2 |
| 20260902181330 | 78 | 205 | 2.0 | 7.0 | 0.00 | 0.00 | 0.00 | 78 | 1015.3 |
| 20260902180831 | 79 | 210 | 3.0 | 7.0 | 0.00 | 0.00 | 0.00 | 78 | 1015.3 |
| 20260902180312 | 79 | 184 | 3.0 | 6.0 | 0.00 | 0.00 | 0.00 | 77 | 1015.2 |
| 20260902175821 | 79 | 210 | 2.0 | 7.0 | 0.00 | 0.00 | 0.00 | 78 | 1015.2 |
| 20260902175343 | 79 | 173 | 1.0 | 4.0 | 0.00 | 0.00 | 0.00 | 78 | 1015.4 |
| 20260902174851 | 79 | 281 | 2.0 | 4.0 | 0.00 | 0.00 | 0.00 | 78 | 1015.4 |
| 20260902174339 | 79 | 248 | 1.0 | 5.0 | 0.00 | 0.00 | 0.00 | 78 | 1015.3 |
| 20260902173820 | 78 | 219 | 3.0 | 5.0 | 0.00 | 0.00 | 0.00 | 78 | 1015.4 |
| 20260902173321 | 78 | 264 | 2.0 | 5.0 | 0.00 | 0.00 | 0.00 | 78 | 1015.2 |
| 20260902172823 | 78 | 202 | 2.0 | 5.0 | 0.00 | 0.00 | 0.00 | 78 | 1015.3 |
| 20260902172332 | 78 | 207 | 2.0 | 5.0 | 0.00 | 0.00 | 0.00 | 78 | 1015.4 |
| 20260902171813 | 79 | 225 | 2.0 | 4.0 | 0.00 | 0.00 | 0.00 | 78 | 1015.5 |
| 20260902171316 | 79 | 226 | 2.0 | 4.0 | 0.00 | 0.00 | 0.00 | 77 | 1015.5 |
| 20260902170824 | 79 | 200 | 2.0 | 4.0 | 0.00 | 0.00 | 0.00 | 77 | 1015.2 |
| 20260902170326 | 79 | 215 | 2.0 | 4.0 | 0.00 | 0.00 | 0.00 | 77 | 1015.3 |
| 20260902165855 | 79 | 208 | 2.0 | 4.0 | 0.00 | 0.00 | 0.00 | 76 | 1015.3 |
| 20260902165337 | 79 | 221 | 2.0 | 4.0 | 0.00 | 0.00 | 0.00 | 75 | 1015.3 |
| 20260902164824 | 79 | 218 | 2.0 | 4.0 | 0.00 | 0.00 | 0.00 | 75 | 1015.3 |
| 20260902164326 | 79 | 228 | 2.0 | 4.0 | 0.00 | 0.00 | 0.00 | 74 | 1015.3 |
| 20260902163826 | 79 | 218 | 1.0 | 4.0 | 0.00 | 0.00 | 0.00 | 74 | 1015.3 |
| 20260902163335 | 79 | 238 | 2.0 | 4.0 | 0.00 | 0.00 | 0.00 | 74 | 1015.3 |
| 20260902162817 | 79 | 217 | 2.0 | 5.0 | 0.00 | 0.00 | 0.00 | 74 | 1015.4 |
| 20260902162319 | 80 | 208 | 1.0 | 5.0 | 0.00 | 0.00 | 0.00 | 74 | 1015.5 |
| 20260902161827 | 79 | 223 | 2.0 | 4.0 | 0.00 | 0.00 | 0.00 | 74 | 1015.4 |
| 20260902161329 | 79 | 213 | 2.0 | 4.0 | 0.00 | 0.00 | 0.00 | 74 | 1015.4 |
| 20260902160829 | 80 | 223 | 2.0 | 4.0 | 0.00 | 0.00 | 0.00 | 73 | 1015.5 |
| 20260902160337 | 80 | 217 | 2.0 | 3.0 | 0.00 | 0.00 | 0.00 | 74 | 1015.4 |
| 20260902155818 | 80 | 69 | 0.0 | 1.0 | 0.00 | 0.00 | 0.00 | 76 | 1015.4 |
| 20260902155320 | 80 | 69 | 0.0 | 1.0 | 0.00 | 0.00 | 0.00 | 75 | 1015.4 |
| 20260902154828 | 80 | 69 | 0.0 | 1.0 | 0.00 | 0.00 | 0.00 | 74 | 1015.3 |
| 20260902154330 | 79 | 69 | 0.0 | 2.0 | 0.00 | 0.00 | 0.00 | 74 | 1015.4 |
| 20260902153830 | 79 | 69 | 0.0 | 2.0 | 0.00 | 0.00 | 0.00 | 74 | 1015.4 |
| 20260902153338 | 79 | 69 | 1.0 | 2.0 | 0.00 | 0.00 | 0.00 | 74 | 1015.5 |
| 20260902152819 | 79 | 69 | 0.0 | 2.0 | 0.00 | 0.00 | 0.00 | 74 | 1015.4 |
| 20260902152320 | 79 | 69 | 1.0 | 2.0 | 0.00 | 0.00 | 0.00 | 74 | 1015.4 |
| 20260902151828 | 79 | 69 | 1.0 | 2.0 | 0.00 | 0.00 | 0.00 | 74 | 1015.5 |
| 20260902151330 | 78 | 69 | 0.0 | 2.0 | 0.00 | 0.00 | 0.00 | 75 | 1015.4 |
| 20260902150836 | 78 | 74 | 1.0 | 2.0 | 0.00 | 0.00 | 0.00 | 75 | 1015.3 |
| 20260902150317 | 78 | 75 | 1.0 | 2.0 | 0.00 | 0.00 | 0.00 | 75 | 1015.3 |
| 20260902145816 | 78 | 74 | 1.0 | 2.0 | 0.00 | 0.00 | 0.00 | 75 | 1015.4 |
| 20260902145318 | 77 | 74 | 1.0 | 2.0 | 0.00 | 0.00 | 0.00 | 76 | 1015.2 |
| 20260902144826 | 77 | 74 | 0.0 | 3.0 | 0.00 | 0.00 | 0.00 | 76 | 1015.0 |
| 20260902144335 | 77 | 74 | 1.0 | 3.0 | 0.00 | 0.00 | 0.00 | 76 | 1015.0 |
| 20260902143815 | 76 | 78 | 1.0 | 3.0 | 0.00 | 0.00 | 0.00 | 76 | 1015.0 |
| 20260902143316 | 76 | 78 | 1.0 | 3.0 | 0.00 | 0.00 | 0.00 | 76 | 1015.1 |
| 20260902142845 | 76 | 78 | 0.0 | 3.0 | 0.00 | 0.00 | 0.00 | 76 | 1015.0 |
| 20260902142354 | 76 | 78 | 1.0 | 3.0 | 0.00 | 0.00 | 0.00 | 77 | 1015.1 |
| 20260902141815 | 76 | 77 | 1.0 | 3.0 | 0.00 | 0.00 | 0.00 | 77 | 1015.1 |
| 20260902141317 | 75 | 72 | 1.0 | 2.0 | 0.00 | 0.00 | 0.00 | 77 | 1015.2 |
| 20260902140817 | 75 | 76 | 1.0 | 2.0 | 0.00 | 0.00 | 0.00 | 77 | 1015.2 |
| 20260902140325 | 75 | 76 | 0.0 | 3.0 | 0.00 | 0.00 | 0.00 | 77 | 1015.3 |
| 20260902135827 | 75 | 76 | 1.0 | 3.0 | 0.00 | 0.00 | 0.00 | 78 | 1015.3 |
| 20260902135336 | 75 | 72 | 1.0 | 3.0 | 0.00 | 0.00 | 0.00 | 78 | 1015.3 |
| 20260902134817 | 75 | 71 | 1.0 | 3.0 | 0.00 | 0.00 | 0.00 | 78 | 1015.4 |
| 20260902134320 | 74 | 72 | 1.0 | 2.0 | 0.00 | 0.00 | 0.00 | 77 | 1015.6 |
| 20260902133827 | 74 | 72 | 1.0 | 3.0 | 0.00 | 0.00 | 0.00 | 78 | 1015.5 |
| 20260902133329 | 74 | 75 | 1.0 | 3.0 | 0.00 | 0.00 | 0.00 | 77 | 1015.5 |
| 20260902132838 | 74 | 71 | 1.0 | 3.0 | 0.00 | 0.00 | 0.00 | 77 | 1015.8 |
| 20260902132320 | 74 | 70 | 1.0 | 2.0 | 0.00 | 0.00 | 0.00 | 77 | 1016.0 |
| 20260902131821 | 74 | 69 | 1.0 | 2.0 | 0.00 | 0.00 | 0.00 | 77 | 1016.1 |
| 20260902131323 | 74 | 265 | 0.0 | 2.0 | 0.00 | 0.00 | 0.00 | 76 | 1016.3 |